| time (UTC) | temp F | wind direction | speed MPH | gust MPH | rain 1hr in | rain 24hr in | rain mn in | humidity % | barometer mb |
| 20260905011523 | 51 | 202 | 8.0 | 17.0 | 0.00 | 0.00 | 0.00 | 68 | 1007.2 |
| 20260905010021 | 53 | 289 | 5.0 | 12.0 | 0.00 | 0.00 | 0.00 | 65 | 1007.2 |
| 20260905004521 | 53 | 277 | 4.0 | 15.0 | 0.00 | 0.00 | 0.00 | 65 | 1007.0 |
| 20260905003021 | 55 | 234 | 5.0 | 23.0 | 0.00 | 0.00 | 0.00 | 62 | 1006.9 |
| 20260905001519 | 55 | 277 | 5.0 | 19.0 | 0.00 | 0.00 | 0.00 | 61 | 1006.9 |
| 20260905000019 | 56 | 278 | 5.0 | 17.0 | 0.00 | 0.00 | 0.00 | 60 | 1006.8 |
| 20260904234520 | 56 | 283 | 5.0 | 20.0 | 0.00 | 0.00 | 0.00 | 59 | 1007.0 |
| 20260904233018 | 56 | 202 | 8.0 | 20.0 | 0.00 | 0.00 | 0.00 | 57 | 1006.8 |
| 20260904231518 | 57 | 229 | 6.0 | 18.0 | 0.00 | 0.00 | 0.00 | 56 | 1006.7 |
| 20260904230019 | 58 | 232 | 4.0 | 22.0 | 0.00 | 0.00 | 0.00 | 55 | 1006.8 |
| 20260904224517 | 58 | 271 | 5.0 | 19.0 | 0.00 | 0.00 | 0.00 | 54 | 1006.8 |
| 20260904223017 | 58 | 250 | 5.0 | 14.0 | 0.00 | 0.00 | 0.00 | 54 | 1006.8 |
| 20260904221519 | 57 | 232 | 10.0 | 23.0 | 0.00 | 0.00 | 0.00 | 54 | 1007.0 |
| 20260904220018 | 58 | 258 | 10.0 | 23.0 | 0.00 | 0.00 | 0.00 | 52 | 1006.9 |
| 20260904214518 | 58 | 214 | 4.0 | 12.0 | 0.00 | 0.00 | 0.00 | 53 | 1006.8 |
| 20260904213017 | 57 | 260 | 10.0 | 30.0 | 0.00 | 0.00 | 0.00 | 51 | 1006.9 |
| 20260904211514 | 58 | 237 | 7.0 | 27.0 | 0.00 | 0.00 | 0.00 | 51 | 1006.7 |
| 20260904210016 | 58 | 157 | 4.0 | 16.0 | 0.00 | 0.00 | 0.00 | 49 | 1006.4 |
| 20260904204517 | 58 | 166 | 6.0 | 14.0 | 0.00 | 0.00 | 0.00 | 48 | 1006.1 |
| 20260904203018 | 58 | 214 | 6.0 | 20.0 | 0.00 | 0.00 | 0.00 | 49 | 1006.3 |
| 20260904201512 | 58 | 259 | 7.0 | 24.0 | 0.00 | 0.00 | 0.00 | 48 | 1006.2 |
| 20260904200012 | 58 | 302 | 3.0 | 18.0 | 0.00 | 0.00 | 0.00 | 50 | 1006.2 |
| 20260904194511 | 58 | 269 | 8.0 | 18.0 | 0.00 | 0.00 | 0.00 | 47 | 1006.1 |
| 20260904193011 | 58 | 132 | 3.0 | 22.0 | 0.00 | 0.00 | 0.00 | 50 | 1006.1 |
| 20260904191509 | 58 | 219 | 4.0 | 16.0 | 0.00 | 0.00 | 0.00 | 47 | 1006.0 |
| 20260904190009 | 57 | 294 | 9.0 | 21.0 | 0.00 | 0.00 | 0.00 | 47 | 1006.0 |
| 20260904184517 | 57 | 267 | 4.0 | 19.0 | 0.00 | 0.00 | 0.00 | 48 | 1006.1 |
| 20260904183006 | 56 | 290 | 9.0 | 23.0 | 0.00 | 0.00 | 0.00 | 49 | 1006.1 |
| 20260904181517 | 56 | 206 | 7.0 | 19.0 | 0.00 | 0.00 | 0.00 | 49 | 1006.0 |
| 20260904180002 | 56 | 260 | 4.0 | 20.0 | 0.00 | 0.00 | 0.00 | 51 | 1005.9 |
| 20260904174502 | 56 | 259 | 9.0 | 20.0 | 0.00 | 0.00 | 0.00 | 48 | 1005.7 |
| 20260904173001 | 56 | 227 | 5.0 | 15.0 | 0.00 | 0.00 | 0.00 | 49 | 1005.7 |
| 20260904171620 | 55 | 271 | 6.0 | 20.0 | 0.00 | 0.00 | 0.00 | 45 | 1005.7 |
| 20260904171501 | 55 | 244 | 7.0 | 20.0 | 0.00 | 0.00 | 0.00 | 48 | 1005.6 |
| 20260904170058 | 55 | 253 | 3.0 | 35.0 | 0.00 | 0.00 | 0.00 | 43 | 1005.3 |
| 20260904164614 | 53 | 269 | 9.0 | 29.0 | 0.00 | 0.00 | 0.00 | 48 | 1005.5 |
| 20260904163054 | 53 | 245 | 6.0 | 19.0 | 0.00 | 0.00 | 0.00 | 50 | 1005.5 |
| 20260904161559 | 52 | 275 | 9.0 | 25.0 | 0.00 | 0.00 | 0.00 | 56 | 1005.6 |
| 20260904160051 | 50 | 232 | 8.0 | 18.0 | 0.00 | 0.00 | 0.00 | 56 | 1005.4 |
| 20260904154551 | 49 | 259 | 5.0 | 20.0 | 0.00 | 0.00 | 0.00 | 63 | 1005.6 |
| 20260904153055 | 48 | 252 | 5.0 | 21.0 | 0.00 | 0.00 | 0.00 | 64 | 1005.4 |
| 20260904151549 | 48 | 183 | 10.0 | 31.0 | 0.00 | 0.00 | 0.00 | 65 | 1005.5 |
| 20260904150045 | 47 | 275 | 9.0 | 25.0 | 0.00 | 0.00 | 0.00 | 65 | 1005.2 |
| 20260904144544 | 47 | 303 | 10.0 | 21.0 | 0.00 | 0.00 | 0.00 | 63 | 1004.8 |
| 20260904143041 | 46 | 269 | 9.0 | 26.0 | 0.00 | 0.00 | 0.00 | 65 | 1004.5 |
| 20260904141538 | 46 | 244 | 6.0 | 22.0 | 0.00 | 0.00 | 0.00 | 66 | 1004.4 |
| 20260904140038 | 0 | 0.0 | 0.0 | 0.00 | 0.00 | 0.00 | 1003.9 | ||
| 20260904134537 | 0 | 0.0 | 0.0 | 0.00 | 0.00 | 0.00 | 1004.4 | ||
| 20260904133034 | 0 | 0.0 | 0.0 | 0.00 | 0.00 | 0.00 | 1004.0 | ||
| 20260904131524 | 0 | 0.0 | 0.0 | 0.00 | 0.00 | 0.00 | 1004.1 | ||
| 20260904130020 | 0 | 0.0 | 0.0 | 0.00 | 0.00 | 0.00 | 1004.0 | ||
| 20260904124516 | 0 | 0.0 | 0.0 | 0.00 | 0.00 | 0.00 | 1003.8 | ||
| 20260904123010 | 0 | 0.0 | 0.0 | 0.00 | 0.00 | 0.00 | 1004.1 | ||
| 20260904121508 | 0 | 0.0 | 0.0 | 0.00 | 0.00 | 0.00 | 1004.3 | ||
| 20260904120004 | 0 | 0.0 | 0.0 | 0.00 | 0.00 | 0.00 | 1004.6 | ||
| 20260904114502 | 44 | 211 | 9.0 | 22.0 | 0.00 | 0.00 | 0.00 | 68 | 1004.9 |
| 20260904113002 | 44 | 282 | 7.0 | 20.0 | 0.00 | 0.00 | 0.00 | 72 | 1004.7 |
| 20260904111503 | 45 | 280 | 7.0 | 28.0 | 0.00 | 0.00 | 0.00 | 69 | 1004.8 |
| 20260904110100 | 45 | 245 | 9.0 | 18.0 | 0.00 | 0.00 | 0.00 | 68 | 1004.6 |
| 20260904104613 | 45 | 279 | 5.0 | 18.0 | 0.00 | 0.00 | 0.00 | 68 | 1004.7 |
| 20260904103100 | 45 | 280 | 5.0 | 18.0 | 0.00 | 0.00 | 0.00 | 70 | 1004.7 |
| 20260904101558 | 45 | 226 | 4.0 | 18.0 | 0.00 | 0.00 | 0.00 | 71 | 1004.6 |
| 20260904100114 | 45 | 233 | 6.0 | 17.0 | 0.00 | 0.00 | 0.00 | 71 | 1004.8 |
| 20260904094605 | 45 | 325 | 5.0 | 17.0 | 0.00 | 0.00 | 0.00 | 72 | 1005.0 |
| 20260904093058 | 45 | 238 | 5.0 | 16.0 | 0.00 | 0.00 | 0.00 | 72 | 1004.9 |
| 20260904091552 | 45 | 257 | 4.0 | 13.0 | 0.00 | 0.00 | 0.00 | 70 | 1004.9 |
| 20260904090051 | 45 | 171 | 5.0 | 25.0 | 0.00 | 0.00 | 0.00 | 71 | 1005.1 |
| 20260904084550 | 45 | 267 | 7.0 | 22.0 | 0.00 | 0.00 | 0.00 | 70 | 1005.1 |
| 20260904083050 | 45 | 283 | 4.0 | 16.0 | 0.00 | 0.00 | 0.00 | 70 | 1005.4 |
| 20260904081546 | 45 | 320 | 5.0 | 12.0 | 0.00 | 0.00 | 0.00 | 68 | 1005.5 |
| 20260904080042 | 45 | 249 | 4.0 | 17.0 | 0.00 | 0.00 | 0.00 | 69 | 1005.5 |
| 20260904074540 | 45 | 55 | 4.0 | 17.0 | 0.00 | 0.00 | 0.00 | 70 | 1005.5 |
| 20260904073038 | 44 | 246 | 6.0 | 18.0 | 0.00 | 0.00 | 0.00 | 70 | 1005.7 |
| 20260904071538 | 44 | 190 | 4.0 | 18.0 | 0.00 | 0.00 | 0.00 | 70 | 1005.7 |
| 20260904070042 | 45 | 275 | 4.0 | 23.0 | 0.00 | 0.00 | 0.00 | 69 | 1005.6 |
| 20260904064535 | 45 | 286 | 6.0 | 17.0 | 0.00 | 0.00 | 0.00 | 68 | 1005.5 |
| 20260904063040 | 45 | 153 | 6.0 | 16.0 | 0.00 | 0.00 | 0.00 | 69 | 1005.4 |
| 20260904061536 | 44 | 263 | 2.0 | 14.0 | 0.00 | 0.00 | 0.00 | 69 | 1005.5 |
| 20260904060105 | 44 | 267 | 4.0 | 13.0 | 0.00 | 0.00 | 0.00 | 70 | 1005.4 |
| 20260904054534 | 45 | 232 | 4.0 | 11.0 | 0.00 | 0.00 | 0.00 | 72 | 1005.3 |
| 20260904053107 | 45 | 280 | 4.0 | 15.0 | 0.00 | 0.00 | 0.00 | 73 | 1005.4 |
| 20260904051529 | 45 | 227 | 3.0 | 10.0 | 0.00 | 0.00 | 0.00 | 73 | 1005.4 |
| 20260904050033 | 46 | 300 | 6.0 | 16.0 | 0.00 | 0.00 | 0.00 | 71 | 1005.4 |
| 20260904044525 | 46 | 214 | 8.0 | 21.0 | 0.00 | 0.00 | 0.00 | 70 | 1005.5 |
| 20260904043024 | 46 | 244 | 8.0 | 25.0 | 0.00 | 0.00 | 0.00 | 69 | 1005.5 |
| 20260904041527 | 46 | 290 | 4.0 | 13.0 | 0.00 | 0.00 | 0.00 | 71 | 1005.5 |
| 20260904040024 | 46 | 255 | 5.0 | 12.0 | 0.00 | 0.00 | 0.00 | 70 | 1005.4 |
| 20260904034522 | 46 | 277 | 3.0 | 19.0 | 0.00 | 0.00 | 0.00 | 69 | 1005.2 |
| 20260904033021 | 47 | 12 | 6.0 | 17.0 | 0.00 | 0.00 | 0.00 | 68 | 1005.0 |
| 20260904031518 | 47 | 296 | 4.0 | 15.0 | 0.00 | 0.00 | 0.00 | 68 | 1004.9 |
| 20260904030017 | 48 | 199 | 3.0 | 15.0 | 0.00 | 0.00 | 0.00 | 66 | 1005.0 |
| 20260904024517 | 48 | 227 | 2.0 | 16.0 | 0.00 | 0.00 | 0.00 | 64 | 1005.0 |
| 20260904023016 | 49 | 248 | 5.0 | 13.0 | 0.00 | 0.00 | 0.00 | 62 | 1005.0 |
| 20260904021521 | 49 | 273 | 4.0 | 10.0 | 0.00 | 0.00 | 0.00 | 60 | 1005.0 |
| 20260904020014 | 50 | 248 | 3.0 | 9.0 | 0.00 | 0.00 | 0.00 | 59 | 1005.0 |
| 20260904014513 | 51 | 246 | 4.0 | 14.0 | 0.00 | 0.00 | 0.00 | 58 | 1005.2 |
| 20260904013013 | 51 | 206 | 5.0 | 14.0 | 0.00 | 0.00 | 0.00 | 56 | 1005.6 |